Wind_Speed
19 17 17 17 15 11 8 2 10 15 19 21 12 12 13 11 12 6 6 8 9 9 10 10 9 8 7 6 8 5 5 5 5 5 5 5 5 3 3 3 4 2 2 2 4 6 7 8 9
22 20 18 19 17 15 7 7 11 20 32 15 13 15 17 12 14 11 9 8 7 10 13 15 11 10 9 8 9 9 7 6 6 6 7 6 6 6 5 5 3 2 1 0 2 4 6 8 9
23 23 21 21 20 16 13 11 10 26 33 23 20 19 21 15 16 15 15 13 9 11 11 15 16 13 12 12 9 11 9 8 7 7 8 8 8 8 7 6 5 3 3 2 2 4 5 6 8
25 25 24 24 22 20 11 21 29 30 23 20 23 27 25 20 18 20 20 20 18 15 14 15 19 18 15 13 11 12 10 10 9 9 9 10 9 9 7 7 5 4 3 3 3 4 5 6 7
28 27 27 26 24 21 24 19 39 38 27 29 25 29 25 19 21 22 23 24 23 20 18 14 17 13 12 11 11 12 13 13 12 12 12 11 11 11 10 9 8 7 6 5 5 5 6 7 7
27 28 27 27 24 15 21 32 44 36 33 38 37 32 32 24 22 23 25 26 27 24 23 19 20 17 16 15 16 16 17 16 16 16 16 15 14 14 13 13 12 11 10 10 9 9 10 9 9
27 28 27 27 27 21 18 41 45 40 35 41 38 29 37 36 22 26 26 28 28 28 26 28 26 26 22 21 20 20 19 18 19 19 19 18 17 17 16 16 16 14 13 13 12 12 12 12 11
29 31 28 27 28 27 27 40 44 41 40 44 35 32 38 43 23 25 30 29 31 32 28 28 31 31 29 26 26 25 24 24 24 22 20 19 19 18 18 18 18 16 15 15 14 13 14 13 12
31 32 29 27 25 27 37 45 42 27 27 35 37 38 39 48 36 34 34 34 34 36 34 32 33 34 32 31 30 30 28 27 27 29 30 28 25 23 22 21 21 21 19 18 17 17 17 16 16
31 33 30 28 38 38 44 42 34 33 37 37 39 41 42 46 44 39 37 37 43 41 39 37 34 34 35 33 31 31 31 29 29 28 31 33 32 30 29 26 26 24 23 22 20 20 18 17 18
33 34 33 39 41 36 38 46 46 42 40 41 43 44 48 49 43 41 42 43 44 50 45 44 37 35 37 39 34 34 34 32 32 32 31 33 33 32 32 29 29 27 27 25 23 22 21 21 20
34 36 38 43 43 43 41 45 50 48 45 45 46 48 51 51 49 48 45 48 51 53 53 46 46 43 41 43 40 39 40 38 35 35 35 35 34 34 34 32 33 31 30 28 26 25 25 25 24
36 39 39 44 41 46 44 45 48 49 46 47 49 49 51 52 52 52 50 53 54 57 57 56 52 52 50 48 47 45 44 42 40 40 38 38 37 37 36 36 36 36 35 33 30 29 28 27 28
37 37 38 42 42 45 46 48 48 48 51 52 52 51 52 53 52 53 53 54 55 57 58 61 60 57 57 53 53 54 50 48 45 42 40 41 41 39 39 40 39 39 40 36 35 34 30 32 31
37 40 43 43 46 49 49 48 51 53 53 54 56 56 56 54 55 56 55 56 56 58 59 65 60 60 61 61 58 60 58 54 52 48 45 43 43 43 39 40 43 43 42 41 37 38 37 32 35
37 39 41 44 47 49 49 48 48 52 55 56 57 58 59 60 60 60 60 61 60 61 62 64 64 61 64 62 64 63 63 61 57 56 53 48 46 46 44 42 42 44 45 45 44 41 42 39 39
33 38 38 37 46 48 52 49 48 46 51 53 54 56 57 58 58 58 60 62 64 64 66 68 67 65 63 67 64 64 66 66 65 61 60 57 52 52 52 48 46 45 47 46 46 46 44 41 42
25 33 35 37 39 43 47 53 51 49 49 50 53 54 54 53 53 55 57 59 61 63 66 69 71 71 67 67 68 68 68 69 70 68 66 64 61 57 57 54 53 52 52 49 46 47 48 47 47
29 30 35 34 36 44 47 49 46 43 42 45 49 48 48 50 49 52 56 57 57 56 59 65 67 69 71 68 72 73 70 71 72 72 70 69 66 64 61 60 57 58 55 53 50 47 49 50 51
28 31 34 38 39 41 42 45 44 40 41 44 47 48 48 49 47 48 47 50 48 47 48 50 51 54 63 72 72 74 74 73 74 75 74 72 64 67 70 63 63 63 60 56 53 50 49 51 55
30 34 37 40 40 40 43 47 43 38 39 40 46 51 40 42 43 41 41 44 48 49 47 46 47 49 47 45 58 68 75 76 76 77 77 75 71 73 74 65 66 65 64 61 56 53 50 51 53
29 32 37 41 43 45 39 49 38 35 38 28 36 47 39 36 38 42 41 41 44 47 50 49 45 46 46 44 44 46 57 69 79 80 77 77 74 77 75 72 68 67 68 66 60 57 54 53 53
27 30 33 38 40 41 36 41 36 33 24 28 36 39 27 28 33 34 36 39 43 43 46 49 48 45 43 44 40 39 40 53 69 76 79 81 79 80 77 74 71 70 69 65 62 66 57 54 54
28 31 33 38 38 37 27 25 17 15 31 34 38 30 33 36 35 35 37 38 39 43 46 46 46 45 44 43 42 40 38 38 47 64 73 77 83 83 79 74 72 72 71 70 60 61 49 55 57
30 34 37 35 35 28 23 29 26 20 28 32 35 42 45 43 38 36 34 37 42 45 47 42 46 47 45 47 47 46 44 43 41 41 52 58 45 76 75 74 75 73 71 65 66 66 63 60 59
31 34 37 40 38 38 28 35 31 36 33 34 49 53 43 34 36 39 38 41 41 42 47 49 49 51 48 47 50 51 50 48 46 45 41 58 80 65 71 72 73 73 65 74 67 63 67 63 61
32 30 34 37 37 41 36 28 23 33 41 44 38 32 25 41 42 39 42 43 44 46 47 49 48 49 51 50 51 53 54 54 50 48 47 44 46 56 60 64 68 71 77 68 73 72 65 48 60
35 35 33 35 39 40 39 36 25 38 41 43 38 36 38 54 47 46 46 45 44 45 46 46 49 48 49 49 49 56 56 56 55 51 48 44 42 41 47 57 58 64 69 75 80 62 68 77 68
31 34 35 35 38 41 45 40 25 28 35 46 42 45 56 54 45 49 47 49 49 52 48 50 51 51 49 47 48 51 60 60 59 53 49 46 41 41 44 44 51 55 58 67 71 76 81 67 74
31 31 32 35 36 38 41 47 33 35 38 43 52 50 55 48 47 51 51 51 52 52 47 47 50 53 50 50 51 51 55 62 60 56 50 45 39 35 35 39 44 48 55 55 63 67 74 77 72
Wind_Direction
208 206 206 215 215 203 178 309 238 254 265 240 227 243 221 222 235 270 279 245 252 251 248 242 239 240 223 235 245 210 183 193 219 232 229 222 217 211 188 173 159 155 124 73 44 46 41 38 38
210 210 203 214 216 205 95 277 253 251 260 242 236 237 238 230 246 258 259 276 293 288 270 255 244 244 256 231 250 234 215 217 225 238 242 224 212 203 205 196 181 191 226 36 9 22 25 24 21
213 214 210 211 214 200 154 313 212 247 253 241 253 243 260 246 252 254 256 265 279 264 270 262 263 267 257 244 238 255 241 238 245 244 240 233 224 215 206 202 191 201 220 263 305 339 359 359 7
217 219 218 218 219 198 208 263 252 236 257 253 243 255 247 251 253 258 258 258 264 262 265 264 268 260 248 239 236 245 247 244 247 257 255 249 242 240 232 222 217 216 236 282 307 312 324 335 340
222 223 222 222 220 218 214 256 247 243 248 275 263 263 254 250 263 262 259 257 257 257 259 261 260 248 258 253 247 249 253 253 253 254 253 250 251 254 253 248 242 239 252 272 298 311 312 319 319
224 227 226 228 225 236 268 249 253 251 255 263 265 259 271 255 254 259 263 259 257 250 255 249 242 252 266 269 275 271 265 265 264 258 254 250 250 252 254 256 258 260 269 282 297 304 304 308 314
230 232 227 225 222 193 250 261 253 250 245 255 264 269 273 266 257 263 258 260 256 250 247 253 244 254 266 272 275 274 274 268 264 259 257 256 254 257 261 265 268 272 278 282 288 295 298 300 303
234 236 233 236 239 222 254 257 251 255 249 255 262 261 261 271 268 274 269 265 262 256 245 244 252 257 262 264 265 268 268 266 267 258 259 265 263 261 265 269 272 273 274 281 283 287 290 294 299
239 242 242 240 250 248 244 248 252 258 254 257 262 259 263 270 269 265 262 264 261 261 252 242 253 254 256 258 261 265 266 264 262 265 261 261 264 268 265 268 272 277 279 279 279 282 284 290 294
247 247 248 253 245 244 252 257 265 264 260 255 258 261 261 263 267 269 272 271 273 267 260 253 244 258 260 260 258 259 265 264 264 265 270 269 266 267 270 271 271 273 274 277 280 282 285 288 292
252 257 260 253 254 259 265 270 265 260 259 263 261 263 264 264 267 271 271 270 269 270 268 269 259 255 262 261 261 261 259 261 262 266 267 269 269 268 267 268 270 270 274 275 277 280 285 287 289
265 263 262 262 265 265 261 261 267 268 264 262 262 262 263 267 268 266 263 264 267 270 271 272 273 269 267 268 263 261 261 260 261 264 265 265 268 267 268 267 268 267 269 272 274 278 281 284 288
253 255 258 260 261 263 261 261 263 266 268 266 265 262 263 264 264 263 260 260 260 265 269 272 266 266 265 265 267 264 264 262 260 262 262 262 262 267 267 269 268 270 271 272 273 277 280 286 290
258 258 260 263 261 262 262 262 263 264 263 263 261 264 266 265 265 265 262 259 259 259 262 262 265 264 265 262 263 264 262 263 261 260 261 261 261 262 266 269 269 268 271 271 278 279 280 287 288
261 262 261 264 263 263 263 264 266 268 266 266 266 264 262 262 264 264 263 263 261 259 258 260 258 260 260 260 257 260 261 259 260 258 255 255 258 261 259 263 269 270 268 272 274 281 283 279 285
267 269 269 271 270 266 267 267 269 270 270 269 268 267 268 267 265 263 262 261 261 261 259 257 258 257 259 257 260 259 260 260 256 258 256 252 253 253 255 257 260 264 269 271 274 274 274 286 276
278 274 275 280 283 284 278 270 268 268 269 270 269 268 267 266 266 265 263 262 261 261 260 260 259 257 256 258 255 255 256 257 257 255 257 256 253 252 253 254 257 262 264 267 270 273 275 278 281
287 289 287 286 284 283 284 283 285 287 282 278 275 274 273 272 270 266 264 263 262 260 259 260 259 259 256 255 256 254 253 255 256 255 254 254 254 251 254 253 253 257 261 263 267 272 275 274 276
292 288 289 288 285 286 288 289 291 291 287 283 281 282 279 277 277 277 276 273 270 266 264 261 260 258 257 253 254 254 251 251 252 253 252 253 253 253 251 255 252 255 257 259 263 266 270 273 273
297 297 295 294 297 293 291 289 291 291 288 287 285 282 283 281 279 276 274 271 269 268 267 266 265 263 257 253 248 251 250 249 250 250 249 248 249 256 242 248 252 252 256 257 258 262 265 267 271
305 304 302 299 295 292 293 287 288 295 294 294 291 288 286 282 277 273 270 273 277 279 277 275 271 266 267 261 254 251 248 247 246 248 248 247 245 247 254 249 247 251 254 256 255 258 261 263 265
310 308 307 303 298 294 290 288 287 288 287 292 270 281 288 276 273 272 269 274 275 277 279 276 269 266 263 263 259 258 250 247 247 242 244 245 245 246 245 245 245 248 249 252 252 254 257 260 263
315 318 318 313 304 297 293 294 291 285 278 272 259 258 264 281 279 275 275 272 273 273 270 270 270 263 261 261 256 256 261 251 246 247 243 242 242 244 245 242 242 243 248 251 252 248 251 255 260
314 320 326 332 323 312 317 307 290 301 271 264 262 265 273 287 281 279 278 279 276 271 270 274 270 268 269 266 257 255 256 260 256 249 245 247 243 240 242 240 241 240 245 247 249 258 253 255 259
316 323 326 331 327 308 281 279 277 246 250 272 270 281 279 273 273 276 276 276 280 280 279 276 273 271 268 267 264 257 257 256 259 259 247 235 241 238 243 242 238 240 239 245 245 249 252 253 256
316 321 325 326 327 324 299 278 271 281 277 255 264 273 264 265 267 265 274 279 278 284 281 278 276 274 269 264 259 257 258 256 255 256 254 237 251 246 245 246 245 235 240 239 242 247 250 250 254
314 315 317 316 322 324 320 311 279 261 267 265 265 264 265 293 292 295 295 288 286 291 288 283 279 275 272 264 259 256 254 255 252 253 252 250 250 248 247 245 247 247 238 244 241 244 246 252 245
304 308 310 314 318 321 322 300 273 274 278 279 283 276 281 286 293 294 286 286 289 289 282 280 282 283 278 273 264 256 252 250 249 248 250 249 248 247 247 248 246 242 244 242 247 241 244 249 250
305 307 307 310 315 316 319 319 294 287 279 282 279 278 282 284 288 290 293 295 295 291 282 271 273 279 281 278 270 261 253 247 245 243 242 243 243 245 243 245 246 245 242 242 243 243 249 247 246
293 298 301 305 308 306 306 324 307 289 281 278 274 273 277 288 294 292 294 292 289 286 284 280 277 276 278 276 272 263 254 247 243 239 237 236 236 236 237 240 244 246 245 242 240 244 248 249 251
Height
5891 5894 5897 5900 5905 5906 5911 5914 5918 5913 5908 5910 5912 5912 5914 5915 5914 5917 5915 5915 5918 5918 5919 5919 5919 5919 5918 5919 5919 5919 5919 5919 5919 5919 5919 5919 5919 5920 5919 5919 5918 5919 5919 5919 5919 5919 5918 5917 5916
5890 5892 5895 5898 5901 5903 5910 5916 5914 5910 5905 5909 5911 5911 5907 5913 5913 5915 5915 5915 5917 5917 5918 5919 5919 5919 5919 5918 5919 5918 5918 5919 5919 5919 5919 5919 5918 5918 5919 5919 5919 5918 5919 5918 5918 5918 5918 5917 5916
5887 5890 5893 5895 5898 5902 5906 5912 5908 5901 5900 5905 5907 5908 5907 5911 5912 5913 5913 5913 5915 5916 5918 5918 5919 5918 5918 5918 5918 5919 5919 5919 5919 5918 5918 5918 5917 5917 5917 5918 5917 5918 5917 5917 5917 5917 5916 5916 5915
5884 5888 5891 5893 5896 5899 5905 5905 5900 5899 5899 5900 5903 5902 5904 5907 5910 5911 5912 5912 5913 5915 5915 5916 5917 5916 5916 5917 5917 5918 5918 5918 5918 5918 5918 5918 5917 5917 5917 5916 5916 5916 5916 5916 5916 5915 5915 5915 5914
5882 5884 5887 5889 5892 5896 5899 5900 5891 5897 5900 5898 5900 5899 5900 5907 5907 5907 5909 5909 5910 5912 5912 5914 5915 5915 5915 5915 5916 5916 5917 5917 5917 5917 5916 5916 5916 5915 5916 5915 5915 5915 5915 5914 5914 5914 5913 5913 5913
5879 5881 5883 5886 5890 5895 5897 5891 5886 5895 5897 5894 5894 5896 5896 5899 5905 5905 5905 5904 5905 5908 5909 5910 5911 5911 5912 5913 5914 5915 5915 5915 5915 5915 5915 5914 5913 5913 5913 5914 5914 5913 5913 5913 5912 5913 5912 5912 5911
5876 5876 5879 5881 5884 5888 5893 5881 5883 5885 5890 5888 5890 5898 5891 5887 5901 5901 5901 5900 5901 5902 5907 5905 5908 5909 5909 5910 5910 5912 5912 5912 5913 5914 5913 5913 5912 5912 5912 5912 5912 5911 5911 5910 5910 5910 5910 5911 5909
5872 5872 5876 5879 5881 5882 5882 5878 5877 5882 5884 5881 5891 5891 5887 5880 5894 5898 5896 5897 5897 5897 5900 5904 5904 5905 5906 5907 5907 5908 5909 5911 5911 5912 5912 5912 5911 5910 5910 5910 5909 5909 5908 5908 5908 5908 5908 5908 5908
5868 5868 5873 5876 5877 5877 5871 5870 5873 5877 5882 5881 5882 5884 5884 5876 5884 5889 5891 5892 5892 5891 5893 5898 5899 5899 5901 5902 5903 5904 5905 5906 5907 5909 5909 5909 5909 5908 5907 5907 5907 5907 5906 5906 5906 5906 5906 5906 5906
5864 5864 5870 5871 5866 5869 5866 5869 5874 5874 5873 5876 5876 5877 5877 5875 5877 5881 5885 5886 5882 5884 5885 5886 5893 5894 5894 5896 5898 5899 5900 5901 5903 5904 5905 5906 5906 5905 5905 5905 5904 5904 5904 5903 5904 5904 5904 5904 5903
5859 5860 5863 5861 5859 5866 5867 5862 5862 5867 5869 5870 5868 5869 5868 5868 5875 5877 5876 5876 5876 5872 5878 5878 5884 5890 5890 5889 5894 5893 5895 5896 5898 5898 5899 5900 5901 5901 5901 5902 5902 5901 5901 5901 5901 5901 5901 5901 5901
5854 5855 5854 5854 5855 5856 5858 5857 5854 5856 5860 5861 5862 5861 5861 5863 5865 5867 5870 5868 5866 5866 5864 5873 5874 5877 5881 5880 5885 5887 5887 5889 5890 5892 5893 5894 5895 5897 5897 5899 5898 5898 5897 5898 5898 5898 5898 5897 5898
5847 5846 5847 5848 5848 5845 5848 5849 5848 5848 5849 5849 5849 5852 5853 5854 5854 5855 5858 5858 5858 5857 5857 5858 5864 5865 5869 5871 5872 5876 5879 5882 5884 5885 5887 5887 5889 5890 5892 5893 5893 5894 5894 5894 5895 5895 5895 5895 5894
5839 5840 5840 5839 5841 5838 5839 5839 5839 5840 5838 5838 5840 5841 5842 5843 5844 5845 5846 5847 5848 5847 5846 5848 5850 5855 5856 5860 5862 5862 5868 5871 5874 5877 5880 5880 5881 5884 5887 5886 5888 5890 5889 5891 5891 5892 5893 5891 5891
5834 5834 5833 5833 5831 5830 5831 5834 5829 5827 5829 5829 5829 5829 5831 5833 5832 5833 5834 5834 5835 5836 5837 5832 5841 5842 5845 5846 5849 5849 5853 5859 5862 5866 5870 5872 5875 5876 5879 5880 5881 5883 5884 5884 5888 5887 5888 5888 5886
5826 5825 5824 5821 5820 5821 5823 5825 5822 5817 5815 5816 5816 5818 5817 5818 5819 5821 5822 5820 5821 5822 5822 5823 5826 5832 5830 5836 5836 5840 5841 5844 5849 5852 5857 5863 5865 5867 5869 5871 5872 5875 5877 5880 5881 5883 5882 5882 5881
5816 5814 5814 5812 5806 5804 5804 5810 5810 5810 5806 5804 5802 5802 5802 5804 5805 5806 5805 5804 5806 5807 5807 5809 5811 5816 5820 5819 5825 5826 5828 5830 5834 5839 5843 5848 5855 5856 5859 5862 5865 5867 5868 5871 5873 5874 5876 5877 5875
5810 5804 5804 5803 5802 5798 5795 5793 5793 5791 5791 5790 5788 5787 5787 5786 5787 5786 5787 5788 5789 5790 5791 5792 5794 5797 5804 5805 5807 5811 5815 5817 5820 5825 5830 5834 5840 5847 5846 5851 5855 5858 5858 5861 5867 5868 5869 5870 5869
5801 5800 5796 5795 5794 5788 5785 5783 5781 5781 5778 5776 5774 5774 5774 5773 5773 5770 5769 5770 5772 5774 5773 5774 5778 5781 5784 5789 5789 5792 5799 5803 5805 5810 5817 5820 5825 5831 5837 5839 5843 5846 5849 5852 5856 5860 5860 5862 5861
5794 5790 5788 5784 5782 5778 5776 5774 5771 5769 5767 5763 5761 5761 5760 5759 5761 5759 5756 5752 5755 5757 5758 5759 5761 5763 5765 5767 5771 5772 5778 5785 5789 5793 5800 5806 5813 5820 5797 5825 5829 5833 5838 5841 5844 5849 5851 5853 5853
5786 5782 5779 5775 5773 5771 5764 5761 5762 5763 5757 5753 5745 5745 5749 5749 5748 5749 5745 5743 5741 5741 5745 5747 5748 5749 5750 5751 5752 5756 5758 5764 5772 5775 5783 5789 5799 5805 5797 5811 5816 5822 5825 5829 5833 5836 5841 5843 5844
5781 5776 5772 5767 5763 5759 5759 5748 5758 5754 5749 5748 5742 5733 5737 5738 5739 5736 5737 5736 5733 5732 5730 5731 5734 5734 5736 5738 5738 5739 5741 5745 5747 5756 5766 5772 5778 5782 5789 5796 5803 5807 5811 5815 5822 5826 5829 5831 5834
5774 5771 5767 5760 5754 5749 5754 5741 5750 5748 5741 5737 5731 5727 5727 5729 5729 5728 5726 5724 5722 5723 5719 5717 5719 5721 5723 5723 5724 5726 5727 5728 5731 5737 5747 5750 5761 5764 5772 5780 5788 5792 5797 5803 5810 5806 5813 5816 5821
5767 5763 5759 5753 5745 5740 5742 5739 5739 5745 5729 5729 5723 5721 5720 5721 5721 5718 5716 5714 5711 5711 5709 5708 5709 5709 5710 5711 5711 5712 5715 5716 5717 5722 5729 5740 5743 5744 5752 5762 5769 5778 5782 5789 5796 5779 5797 5804 5809
5759 5754 5750 5750 5744 5742 5736 5734 5731 5732 5729 5721 5713 5713 5713 5712 5713 5710 5708 5706 5702 5699 5697 5697 5696 5697 5699 5699 5700 5700 5703 5704 5708 5710 5719 5735 5689 5721 5732 5744 5752 5761 5770 5776 5783 5786 5790 5796 5798
5753 5749 5743 5737 5735 5732 5733 5727 5729 5717 5714 5707 5702 5701 5701 5702 5702 5700 5698 5695 5692 5689 5685 5683 5683 5682 5683 5685 5685 5688 5690 5693 5695 5699 5703 5710 5703 5707 5718 5727 5734 5747 5755 5760 5767 5773 5776 5785 5786
5747 5743 5739 5732 5729 5723 5722 5721 5721 5708 5706 5699 5696 5691 5689 5688 5688 5687 5686 5683 5679 5676 5672 5668 5668 5667 5667 5670 5671 5673 5676 5680 5684 5687 5688 5693 5697 5701 5708 5714 5722 5731 5741 5742 5750 5760 5770 5755 5765
5739 5736 5732 5725 5719 5715 5714 5710 5710 5702 5697 5689 5686 5683 5680 5679 5678 5677 5673 5670 5667 5663 5659 5656 5652 5652 5652 5653 5656 5657 5660 5664 5670 5675 5677 5684 5689 5692 5697 5702 5707 5715 5725 5732 5735 5744 5753 5756 5760
5731 5725 5720 5718 5713 5706 5699 5700 5701 5696 5693 5680 5676 5671 5669 5668 5670 5663 5658 5653 5650 5647 5646 5643 5641 5639 5638 5637 5640 5641 5644 5649 5655 5662 5666 5672 5678 5683 5686 5690 5696 5702 5708 5719 5728 5732 5732 5742 5753
5724 5719 5714 5707 5707 5700 5692 5687 5689 5684 5680 5676 5663 5666 5658 5658 5654 5649 5645 5641 5636 5631 5630 5628 5625 5623 5622 5622 5622 5624 5626 5634 5641 5648 5654 5660 5667 5672 5678 5682 5686 5692 5699 5705 5712 5719 5727 5734 5741